Location: Austin
(30.3000°N, 97.7500°W)
Time: 03:07:01
(UTC-05:00)

Cosmos 1461 - Pass Details

Date: 01 October 2024
Orbit: 490 x 567 km, 65.0° (Epoch: 06 October)

Event Time Altitude Azimuth Distance (km) Brightness Sun altitude
Rises 20:05:38 0° 201° (SSW) 2,576 6.5 -11.6°
Reaches altitude 10° 20:07:48 10° 198° (SSW) 1,688 5.5 -12.1°
Maximum altitude 20:11:32 69° 115° (ESE) 530 2.5 -12.9°
Drops below altitude 10° 20:15:14 10° 32° (NNE) 1,679 5.0 -13.7°
Enters shadow 20:16:30 - 31° (NNE) 2,193 5.6 -14.0°
